FW6320 Weather Reports


Display with metric or nautical units.
time (UTC)temp
F
wind
direction
speed
MPH
gust
MPH
rain 1hr
in
rain 24hr
in
rain mn
in
humidity
%
barometer
mb
20260903011550 92 145 7.0 13.0 0.00 0.00 0.00 52 1011.8
20260903011027 92 119 5.0 14.0 0.00 0.00 0.00 52 1011.7
20260903010524 93 107 8.0 14.0 0.00 0.00 0.00 50 1011.7
20260903010047 93 122 5.0 11.0 0.00 0.00 0.00 48 1011.7
20260903005523 94 100 5.0 11.0 0.00 0.00 0.00 47 1011.6
20260903005025 94 117 4.0 11.0 0.00 0.00 0.00 47 1011.6
20260903004552 94 98 3.0 10.0 0.00 0.00 0.00 46 1011.6
20260903004027 94 107 3.0 14.0 0.00 0.00 0.00 46 1011.6
20260903003524 95 69 6.0 14.0 0.00 0.00 0.00 45 1011.5
20260903003057 95 98 4.0 9.0 0.00 0.00 0.00 45 1011.5
20260903002520 95 115 4.0 10.0 0.00 0.00 0.00 45 1011.5
20260903002026 95 109 4.0 12.0 0.00 0.00 0.00 44 1011.6
20260903001542 95 109 7.0 13.0 0.00 0.00 0.00 44 1011.7
20260903001024 96 101 6.0 13.0 0.00 0.00 0.00 44 1011.6
20260903000524 96 92 6.0 12.0 0.00 0.00 0.00 44 1011.7
20260903000049 96 56 8.0 12.0 0.00 0.00 0.00 43 1011.6
20260902235521 96 85 7.0 12.0 0.00 0.00 0.00 44 1011.5
20260902235020 96 124 4.0 12.0 0.00 0.00 0.00 44 1011.6
20260902234551 96 86 6.0 11.0 0.00 0.00 0.00 44 1011.6
20260902234022 96 86 5.0 12.0 0.00 0.00 0.00 44 1011.7
20260902233523 96 96 5.0 12.0 0.00 0.00 0.00 44 1011.7
20260902233044 97 109 6.0 12.0 0.00 0.00 0.00 44 1011.7
20260902232524 97 98 5.0 12.0 0.00 0.00 0.00 44 1011.6
20260902232020 97 55 4.0 11.0 0.00 0.00 0.00 44 1011.5
20260902231548 97 93 6.0 13.0 0.00 0.00 0.00 44 1011.5
20260902231024 97 75 5.0 13.0 0.00 0.00 0.00 43 1011.6
20260902230526 97 117 4.0 12.0 0.00 0.00 0.00 43 1011.6
20260902230047 97 84 6.0 13.0 0.00 0.00 0.00 43 1011.6
20260902225524 97 136 4.0 13.0 0.00 0.00 0.00 43 1011.6
20260902225027 97 98 6.0 12.0 0.00 0.00 0.00 44 1011.7
20260902224606 97 103 4.0 12.0 0.00 0.00 0.00 44 1011.7
20260902224027 97 86 4.0 12.0 0.00 0.00 0.00 43 1011.7
20260902223522 97 72 4.0 12.0 0.00 0.00 0.00 43 1011.7
20260902223057 98 92 5.0 12.0 0.00 0.00 0.00 42 1011.7
20260902222521 98 53 4.0 15.0 0.00 0.00 0.00 43 1011.8
20260902222024 97 44 6.0 15.0 0.00 0.00 0.00 43 1011.8
20260902221543 98 65 4.0 11.0 0.00 0.00 0.00 44 1011.9
20260902221024 97 113 5.0 12.0 0.00 0.00 0.00 44 1011.9
20260902220524 97 150 5.0 12.0 0.00 0.00 0.00 44 1012.0
20260902220040 98 104 5.0 12.0 0.00 0.00 0.00 43 1012.1
20260902215524 98 139 4.0 11.0 0.00 0.00 0.00 44 1012.1
20260902215026 98 69 4.0 13.0 0.00 0.00 0.00 42 1012.2
20260902214615 98 63 7.0 13.0 0.00 0.00 0.00 43 1012.3
20260902214023 98 95 4.0 11.0 0.00 0.00 0.00 43 1012.3
20260902213526 98 57 6.0 11.0 0.00 0.00 0.00 43 1012.4
20260902213043 98 73 5.0 13.0 0.00 0.00 0.00 43 1012.4
20260902212521 98 71 7.0 13.0 0.00 0.00 0.00 44 1012.3
20260902212025 98 122 4.0 10.0 0.00 0.00 0.00 43 1012.4
20260902211541 98 36 3.0 10.0 0.00 0.00 0.00 43 1012.4
20260902211018 98 57 4.0 11.0 0.00 0.00 0.00 43 1012.3
20260902210522 98 62 4.0 12.0 0.00 0.00 0.00 43 1012.4
20260902210046 98 48 4.0 12.0 0.00 0.00 0.00 43 1012.5
20260902205523 98 51 3.0 13.0 0.00 0.00 0.00 44 1012.5
20260902205023 98 168 4.0 13.0 0.00 0.00 0.00 44 1012.7
20260902204548 98 77 5.0 11.0 0.00 0.00 0.00 44 1012.7
20260902204026 98 132 3.0 8.0 0.00 0.00 0.00 45 1012.7
20260902203523 98 100 4.0 12.0 0.00 0.00 0.00 45 1012.9
20260902203044 98 0 2.0 13.0 0.00 0.00 0.00 45 1012.9
20260902202523 97 61 5.0 13.0 0.00 0.00 0.00 46 1013.1
20260902202021 97 51 6.0 13.0 0.00 0.00 0.00 45 1013.2
20260902201551 97 67 5.0 11.0 0.00 0.00 0.00 46 1013.4
20260902201022 97 149 4.0 10.0 0.00 0.00 0.00 45 1013.4
20260902200524 97 66 3.0 10.0 0.00 0.00 0.00 44 1013.5
20260902200050 97 138 4.0 10.0 0.00 0.00 0.00 45 1013.7
20260902195525 97 150 3.0 10.0 0.00 0.00 0.00 45 1013.6
20260902195023 97 27 1.0 9.0 0.00 0.00 0.00 46 1013.7
20260902194551 97 0 3.0 11.0 0.00 0.00 0.00 46 1013.8
20260902194022 97 77 5.0 13.0 0.00 0.00 0.00 47 1014.0
20260902193522 97 65 5.0 13.0 0.00 0.00 0.00 45 1014.0
20260902193046 97 84 5.0 13.0 0.00 0.00 0.00 45 1014.0
20260902192521 97 0 3.0 10.0 0.00 0.00 0.00 45 1014.1
20260902192025 96 57 2.0 11.0 0.00 0.00 0.00 47 1014.2
20260902191541 96 137 2.0 11.0 0.00 0.00 0.00 46 1014.3
20260902191018 96 141 3.0 11.0 0.00 0.00 0.00 47 1014.3
20260902190519 96 74 6.0 11.0 0.00 0.00 0.00 46 1014.4
20260902190040 96 63 2.0 10.0 0.00 0.00 0.00 46 1014.5
20260902185524 96 85 4.0 9.0 0.00 0.00 0.00 46 1014.5
20260902185023 96 71 1.0 11.0 0.00 0.00 0.00 47 1014.5
20260902184552 96 71 4.0 11.0 0.00 0.00 0.00 46 1014.6
20260902184023 95 36 3.0 14.0 0.00 0.00 0.00 47 1014.7
20260902183525 95 88 5.0 14.0 0.00 0.00 0.00 47 1014.7
20260902183047 96 51 4.0 14.0 0.00 0.00 0.00 47 1014.8
20260902182522 95 42 3.0 8.0 0.00 0.00 0.00 48 1015.0
20260902182023 94 60 2.0 8.0 0.00 0.00 0.00 50 1015.1
20260902181545 94 117 3.0 9.0 0.00 0.00 0.00 49 1015.2
20260902181018 95 111 3.0 9.0 0.00 0.00 0.00 48 1015.3
20260902180526 95 22 2.0 9.0 0.00 0.00 0.00 48 1015.3
20260902180042 94 96 3.0 11.0 0.00 0.00 0.00 49 1015.5
20260902175524 95 142 5.0 11.0 0.00 0.00 0.00 49 1015.6
20260902175024 95 76 2.0 10.0 0.00 0.00 0.00 49 1015.8
20260902174547 94 122 3.0 10.0 0.00 0.00 0.00 49 1015.8
20260902174024 94 60 5.0 10.0 0.00 0.00 0.00 50 1015.9
20260902173523 94 117 2.0 10.0 0.00 0.00 0.00 50 1015.9
20260902173044 94 160 3.0 10.0 0.00 0.00 0.00 50 1016.0
20260902172525 94 82 4.0 10.0 0.00 0.00 0.00 50 1016.0
20260902172025 94 96 5.0 10.0 0.00 0.00 0.00 50 1016.1
20260902171551 94 0 0.0 4.0 0.00 0.00 0.00 52 1016.2
20260902171024 93 0 0.0 9.0 0.00 0.00 0.00 51 1016.2
20260902170526 93 0 4.0 9.0 0.00 0.00 0.00 50 1016.2
20260902170044 93 127 2.0 9.0 0.00 0.00 0.00 51 1016.2
20260902165522 93 0 3.0 9.0 0.00 0.00 0.00 51 1016.3
20260902165019 92 133 0.0 8.0 0.00 0.00 0.00 53 1016.3
20260902164548 92 140 2.0 8.0 0.00 0.00 0.00 53 1016.4
20260902164021 92 107 2.0 9.0 0.00 0.00 0.00 53 1016.4
20260902163524 91 0 1.0 9.0 0.00 0.00 0.00 54 1016.5
20260902163048 92 121 5.0 9.0 0.00 0.00 0.00 53 1016.6
20260902162530 91 120 3.0 9.0 0.00 0.00 0.00 53 1016.6
20260902162025 91 67 3.0 9.0 0.00 0.00 0.00 53 1016.6
20260902161548 90 0 2.0 9.0 0.00 0.00 0.00 56 1016.6
20260902161025 90 140 4.0 9.0 0.00 0.00 0.00 55 1016.6
20260902160527 90 112 3.0 9.0 0.00 0.00 0.00 56 1016.6
20260902160041 90 117 2.0 7.0 0.00 0.00 0.00 56 1016.7
20260902155521 90 185 0.0 7.0 0.00 0.00 0.00 58 1016.7
20260902155021 90 133 3.0 7.0 0.00 0.00 0.00 58 1016.8
20260902154540 90 140 2.0 7.0 0.00 0.00 0.00 56 1016.8
20260902154023 89 166 2.0 8.0 0.00 0.00 0.00 59 1016.6
20260902153521 89 121 0.0 8.0 0.00 0.00 0.00 60 1016.6
20260902153041 88 121 3.0 9.0 0.00 0.00 0.00 60 1016.6
20260902152523 88 142 1.0 9.0 0.00 0.00 0.00 61 1016.6
20260902152024 88 136 3.0 9.0 0.00 0.00 0.00 61 1016.6
20260902151540 88 194 1.0 7.0 0.00 0.00 0.00 61 1016.5
20260902151022 87 123 2.0 8.0 0.00 0.00 0.00 62 1016.4
20260902150524 87 0 2.0 11.0 0.00 0.00 0.00 63 1016.4
20260902150042 86 0 2.0 11.0 0.00 0.00 0.00 62 1016.4
20260902145524 86 113 5.0 9.0 0.00 0.00 0.00 63 1016.5
20260902145021 86 128 1.0 8.0 0.00 0.00 0.00 64 1016.4
20260902144548 86 125 3.0 8.0 0.00 0.00 0.00 64 1016.5
20260902144020 86 136 2.0 8.0 0.00 0.00 0.00 65 1016.5
20260902143525 86 0 1.0 8.0 0.00 0.00 0.00 65 1016.5
20260902143042 86 126 2.0 9.0 0.00 0.00 0.00 66 1016.5
20260902142526 85 128 2.0 9.0 0.00 0.00 0.00 66 1016.4
20260902142025 84 109 5.0 9.0 0.00 0.00 0.00 66 1016.5
20260902141545 84 144 2.0 8.0 0.00 0.00 0.00 66 1016.6
20260902141024 84 143 3.0 7.0 0.00 0.00 0.00 67 1016.5
20260902140524 84 139 1.0 7.0 0.00 0.00 0.00 67 1016.5
20260902140043 84 141 2.0 8.0 0.00 0.00 0.00 68 1016.5
20260902135523 83 140 4.0 8.0 0.00 0.00 0.00 68 1016.5
20260902135021 83 119 0.0 8.0 0.00 0.00 0.00 69 1016.5
20260902134542 83 142 3.0 7.0 0.00 0.00 0.00 69 1016.5
20260902134020 83 126 3.0 7.0 0.00 0.00 0.00 70 1016.4
20260902133526 82 126 2.0 6.0 0.00 0.00 0.00 70 1016.4
20260902133053 82 0 0.0 5.0 0.00 0.00 0.00 71 1016.4
20260902132526 82 144 2.0 5.0 0.00 0.00 0.00 71 1016.4
20260902132024 81 139 0.0 5.0 0.00 0.00 0.00 71 1016.5
20260902131556 81 0 0.0 0.0 0.00 0.00 0.00 72 1016.4
20260902131023 80 0 0.0 0.0 0.00 0.00 0.00 73 1016.2
20260902130519 79 0 0.0 0.0 0.00 0.00 0.00 75 1016.1
20260902130042 78 0 0.0 0.0 0.00 0.00 0.00 76 1016.1
20260902125521 78 0 0.0 0.0 0.00 0.00 0.00 77 1016.1
20260902125020 78 0 0.0 0.0 0.00 0.00 0.00 77 1016.2
20260902124542 77 0 0.0 0.0 0.00 0.00 0.00 77 1016.0
20260902124020 77 0 0.0 0.0 0.00 0.00 0.00 78 1016.0
20260902123523 77 0 0.0 0.0 0.00 0.00 0.00 78 1016.1
20260902123038 76 0 0.0 0.0 0.00 0.00 0.00 77 1016.0
20260902122527 77 0 0.0 0.0 0.00 0.00 0.00 77 1015.9
20260902122023 76 0 0.0 0.0 0.00 0.00 0.00 77 1016.0
20260902121543 77 0 0.0 0.0 0.00 0.00 0.00 77 1015.8
20260902121026 77 0 0.0 0.0 0.00 0.00 0.00 76 1015.8
20260902120523 77 0 0.0 0.0 0.00 0.00 0.00 76 1015.8
20260902120042 77 0 0.0 0.0 0.00 0.00 0.00 75 1015.8
20260902115526 77 0 0.0 0.0 0.00 0.00 0.00 75 1015.8
20260902115018 77 0 0.0 0.0 0.00 0.00 0.00 75 1015.8
20260902114544 77 0 0.0 0.0 0.00 0.00 0.00 75 1015.8
20260902114020 77 0 0.0 0.0 0.00 0.00 0.00 75 1015.6
20260902113520 77 0 0.0 0.0 0.00 0.00 0.00 75 1015.7
20260902113052 77 0 0.0 0.0 0.00 0.00 0.00 75 1015.7
20260902112524 77 0 0.0 0.0 0.00 0.00 0.00 75 1015.6
20260902112024 77 0 0.0 0.0 0.00 0.00 0.00 75 1015.7
20260902111546 77 0 0.0 0.0 0.00 0.00 0.00 75 1015.6
20260902111026 78 0 0.0 0.0 0.00 0.00 0.00 74 1015.8
20260902110524 78 0 0.0 0.0 0.00 0.00 0.00 74 1015.8
20260902110042 78 0 0.0 0.0 0.00 0.00 0.00 73 1015.8
20260902105519 78 0 0.0 0.0 0.00 0.00 0.00 73 1015.6
20260902105023 78 0 0.0 0.0 0.00 0.00 0.00 73 1015.6
20260902104559 78 0 0.0 0.0 0.00 0.00 0.00 74 1015.6
20260902104019 78 0 0.0 0.0 0.00 0.00 0.00 74 1015.7
20260902103529 78 0 0.0 0.0 0.00 0.00 0.00 74 1015.5
20260902103041 78 0 0.0 0.0 0.00 0.00 0.00 74 1015.4
20260902102521 78 0 0.0 0.0 0.00 0.00 0.00 74 1015.4
20260902102024 78 0 0.0 0.0 0.00 0.00 0.00 74 1015.5
20260902101548 78 0 0.0 0.0 0.00 0.00 0.00 74 1015.4
20260902101024 78 0 0.0 0.0 0.00 0.00 0.00 74 1015.6
20260902100526 78 0 0.0 0.0 0.00 0.00 0.00 74 1015.6
20260902100042 78 0 0.0 0.0 0.00 0.00 0.00 74 1015.5
20260902095519 78 0 0.0 0.0 0.00 0.00 0.00 74 1015.6
20260902095020 78 0 0.0 0.0 0.00 0.00 0.00 74 1015.5
20260902094541 78 0 0.0 0.0 0.00 0.00 0.00 73 1015.6
20260902094018 78 0 0.0 0.0 0.00 0.00 0.00 73 1015.7
20260902093520 79 0 0.0 0.0 0.00 0.00 0.00 73 1015.6
20260902093043 79 0 0.0 0.0 0.00 0.00 0.00 72 1015.6
20260902092523 80 0 0.0 0.0 0.00 0.00 0.00 71 1015.6
20260902092024 80 0 0.0 0.0 0.00 0.00 0.00 71 1015.6
20260902091544 80 0 0.0 0.0 0.00 0.00 0.00 71 1015.6
20260902091022 80 0 0.0 0.0 0.00 0.00 0.00 71 1015.6
20260902090524 80 0 0.0 0.0 0.00 0.00 0.00 70 1015.7
20260902090042 80 0 0.0 0.0 0.00 0.00 0.00 70 1015.7
20260902085520 80 0 0.0 0.0 0.00 0.00 0.00 70 1015.7
20260902085020 81 0 0.0 0.0 0.00 0.00 0.00 70 1015.7
20260902084541 81 0 0.0 0.0 0.00 0.00 0.00 70 1015.7
20260902084021 81 0 0.0 0.0 0.00 0.00 0.00 70 1015.6
20260902083518 81 0 0.0 0.0 0.00 0.00 0.00 69 1015.7
20260902083051 81 0 0.0 0.0 0.00 0.00 0.00 69 1015.7
20260902082520 82 0 0.0 0.0 0.00 0.00 0.00 69 1015.8
20260902082024 82 0 0.0 0.0 0.00 0.00 0.00 68 1015.8
20260902081545 82 0 0.0 0.0 0.00 0.00 0.00 68 1015.7
20260902081024 82 0 0.0 0.0 0.00 0.00 0.00 67 1015.7
20260902080522 83 0 0.0 0.0 0.00 0.00 0.00 67 1015.7
20260902080043 83 0 0.0 0.0 0.00 0.00 0.00 67 1015.7
20260902075521 83 0 0.0 0.0 0.00 0.00 0.00 66 1015.7
20260902075020 83 0 0.0 0.0 0.00 0.00 0.00 66 1015.6
20260902074541 83 0 0.0 0.0 0.00 0.00 0.00 66 1015.6
20260902074020 84 0 0.0 0.0 0.00 0.00 0.00 65 1015.7
20260902073520 84 0 0.0 0.0 0.00 0.00 0.00 65 1015.7
20260902073041 84 0 0.0 4.0 0.00 0.00 0.00 65 1015.6
20260902072520 85 0 0.0 7.0 0.00 0.00 0.00 64 1015.7
20260902072021 85 135 1.0 8.0 0.00 0.00 0.00 64 1015.7
20260902071546 85 0 2.0 10.0 0.00 0.00 0.00 64 1015.6
20260902071023 85 138 3.0 10.0 0.00 0.00 0.00 63 1015.6
20260902070522 85 151 3.0 11.0 0.00 0.00 0.00 63 1015.7
20260902070045 85 153 4.0 11.0 0.00 0.00 0.00 63 1015.8
20260902065525 85 151 4.0 11.0 0.00 0.00 0.00 63 1015.7
20260902065022 85 136 3.0 11.0 0.00 0.00 0.00 63 1015.7
20260902064545 85 187 5.0 10.0 0.00 0.00 0.00 63 1015.6
20260902064021 84 0 2.0 8.0 0.00 0.00 0.00 64 1015.6
20260902063520 84 152 1.0 8.0 0.00 0.00 0.00 63 1015.6
20260902063043 84 136 2.0 8.0 0.00 0.00 0.00 63 1015.6
20260902062521 85 142 2.0 8.0 0.00 0.00 0.00 63 1015.5
20260902062020 85 144 0.0 8.0 0.00 0.00 0.00 62 1015.5
20260902061546 85 142 4.0 8.0 0.00 0.00 0.00 62 1015.5
20260902061023 85 135 4.0 8.0 0.00 0.00 0.00 62 1015.3
20260902060523 85 147 3.0 8.0 0.00 0.00 0.00 61 1015.3
20260902060043 86 139 1.0 8.0 0.00 0.00 0.00 61 1015.2
20260902055521 86 144 4.0 9.0 0.00 0.00 0.00 60 1015.2
20260902055020 86 147 5.0 10.0 0.00 0.00 0.00 60 1015.2
20260902054542 86 135 6.0 10.0 0.00 0.00 0.00 59 1015.2
20260902054028 86 144 6.0 10.0 0.00 0.00 0.00 59 1015.1
20260902053523 86 161 6.0 9.0 0.00 0.00 0.00 59 1015.1
20260902053042 85 141 4.0 8.0 0.00 0.00 0.00 60 1015.1
20260902052521 84 140 4.0 8.0 0.00 0.00 0.00 63 1015.1
20260902052020 84 0 0.0 0.0 0.00 0.00 0.00 63 1015.1
20260902051554 84 0 0.0 0.0 0.00 0.00 0.00 61 1014.9
20260902051023 84 0 0.0 0.0 0.00 0.00 0.00 61 1014.8
20260902050526 84 0 0.0 0.0 0.00 0.00 0.00 60 1014.8
20260902050044 84 0 0.0 0.0 0.00 0.00 0.00 60 1014.8
20260902045521 84 0 0.0 0.0 0.00 0.00 0.00 60 1014.7
20260902045024 84 0 0.0 0.0 0.00 0.00 0.00 60 1014.8
20260902044547 85 0 0.0 0.0 0.00 0.00 0.00 60 1014.9
20260902044023 85 0 0.0 0.0 0.00 0.00 0.00 59 1014.9
20260902043520 85 0 0.0 0.0 0.00 0.00 0.00 59 1014.9
20260902043047 85 0 0.0 0.0 0.00 0.00 0.00 59 1014.9
20260902042521 85 0 0.0 0.0 0.00 0.00 0.00 59 1014.8
20260902042022 85 0 0.0 0.0 0.00 0.00 0.00 58 1014.8
20260902041546 85 0 0.0 0.0 0.00 0.00 0.00 58 1014.8
20260902041024 85 0 0.0 0.0 0.00 0.00 0.00 58 1014.8
20260902040527 85 0 0.0 0.0 0.00 0.00 0.00 58 1014.8
20260902040043 85 0 0.0 0.0 0.00 0.00 0.00 58 1014.8
20260902035521 85 0 0.0 0.0 0.00 0.00 0.00 58 1014.8
20260902035018 86 0 0.0 0.0 0.00 0.00 0.00 58 1014.9
20260902034542 86 0 0.0 0.0 0.00 0.00 0.00 58 1014.8
20260902034020 86 0 0.0 0.0 0.00 0.00 0.00 57 1014.9
20260902033520 86 0 0.0 0.0 0.00 0.00 0.00 57 1014.9
20260902033043 87 0 0.0 0.0 0.00 0.00 0.00 56 1014.9
20260902032521 87 0 0.0 0.0 0.00 0.00 0.00 56 1014.8
20260902032026 87 0 0.0 0.0 0.00 0.00 0.00 55 1014.6
20260902031542 87 0 0.0 0.0 0.00 0.00 0.00 55 1014.6
20260902031027 87 0 0.0 0.0 0.00 0.00 0.00 55 1014.7
20260902030521 88 0 0.0 0.0 0.00 0.00 0.00 54 1014.6
20260902030041 88 0 0.0 0.0 0.00 0.00 0.00 54 1014.5
20260902025523 88 0 0.0 0.0 0.00 0.00 0.00 53 1014.4
20260902025020 88 0 0.0 0.0 0.00 0.00 0.00 53 1014.3
20260902024541 88 0 0.0 0.0 0.00 0.00 0.00 53 1014.2
20260902024020 89 0 0.0 2.0 0.00 0.00 0.00 53 1014.2
20260902023528 89 0 0.0 4.0 0.00 0.00 0.00 53 1014.1
20260902023054 89 0 0.0 4.0 0.00 0.00 0.00 53 1014.1
20260902022524 89 128 2.0 4.0 0.00 0.00 0.00 52 1013.9
20260902022029 89 126 1.0 4.0 0.00 0.00 0.00 52 1013.9
20260902021542 89 127 1.0 4.0 0.00 0.00 0.00 51 1013.8
20260902021021 90 129 1.0 4.0 0.00 0.00 0.00 51 1013.7
20260902020522 90 0 1.0 5.0 0.00 0.00 0.00 51 1013.7
20260902020041 90 130 2.0 7.0 0.00 0.00 0.00 51 1013.6
20260902015524 90 130 2.0 7.0 0.00 0.00 0.00 50 1013.5
20260902015024 91 127 3.0 6.0 0.00 0.00 0.00 50 1013.4
20260902014547 91 142 3.0 6.0 0.00 0.00 0.00 50 1013.4
20260902014024 91 130 3.0 5.0 0.00 0.00 0.00 50 1013.3
20260902013524 91 125 3.0 7.0 0.00 0.00 0.00 49 1013.3
20260902013044 91 138 3.0 7.0 0.00 0.00 0.00 49 1013.2
20260902012522 92 144 3.0 7.0 0.00 0.00 0.00 49 1013.2
20260902012022 92 175 3.0 8.0 0.00 0.00 0.00 48 1013.1